TimeEST,TemperatureF,Dew PointF,Humidity,Sea Level PressureIn,VisibilityMPH,Wind Direction,Wind SpeedMPH,Gust SpeedMPH,PrecipitationIn,Events,Conditions,WindDirDegrees,DateUTC
1:52 AM,44.1,42.1,93,29.96,7.0,ESE,6.9,-,N/A,,Overcast,120,2013-01-14 06:52:00
2:52 AM,43.0,41.0,93,29.96,9.0,ESE,8.1,-,N/A,,Overcast,110,2013-01-14 07:52:00
4:05 AM,44.6,42.8,93,29.94,8.0,ESE,10.4,-,0.00,Rain,Light Rain,110,2013-01-14 09:05:00
4:52 AM,44.1,41.0,89,29.93,8.0,ENE,5.8,-,0.04,Rain,Light Rain,70,2013-01-14 09:52:00
5:12 AM,44.6,42.8,93,29.87,10.0,East,8.1,20.7,0.01,Rain,Light Rain,80,2013-01-14 10:12:00
5:52 AM,44.1,42.1,93,29.91,10.0,ESE,10.4,-,0.01,,Partly Cloudy,110,2013-01-14 10:52:00
6:52 AM,44.1,41.0,89,29.95,10.0,Calm,Calm,-,N/A,,Scattered Clouds,0,2013-01-14 11:52:00
7:26 AM,42.8,39.2,87,29.96,9.0,Calm,Calm,-,N/A,,Overcast,0,2013-01-14 12:26:00
7:52 AM,43.0,41.0,93,30.02,9.0,WSW,5.8,-,N/A,,Overcast,250,2013-01-14 12:52:00
8:52 AM,48.9,41.0,74,30.05,10.0,Calm,Calm,-,N/A,,Overcast,0,2013-01-14 13:52:00
9:52 AM,48.0,37.9,68,30.08,10.0,West,8.1,19.6,N/A,,Overcast,280,2013-01-14 14:52:00
10:52 AM,44.1,35.1,71,30.12,10.0,West,12.7,20.7,N/A,,Overcast,280,2013-01-14 15:52:00
11:52 AM,44.1,34.0,68,30.12,10.0,West,18.4,23.0,N/A,,Overcast,260,2013-01-14 16:52:00
12:15 PM,44.6,32.0,61,30.11,10.0,West,18.4,24.2,N/A,,Mostly Cloudy,280,2013-01-14 17:15:00
12:52 PM,45.0,30.0,56,30.12,10.0,West,15.0,25.3,N/A,,Clear,270,2013-01-14 17:52:00
1:52 PM,45.0,27.0,49,30.14,10.0,West,19.6,-,N/A,,Clear,280,2013-01-14 18:52:00
3:52 PM,41.0,24.1,51,30.18,10.0,West,16.1,26.5,N/A,,Clear,270,2013-01-14 20:52:00
4:52 PM,37.9,21.9,53,30.20,10.0,West,10.4,-,N/A,,Clear,270,2013-01-14 21:52:00
5:52 PM,34.0,21.9,61,30.21,10.0,West,10.4,-,N/A,,Clear,270,2013-01-14 22:52:00
6:52 PM,35.1,21.0,57,30.26,10.0,West,11.5,-,N/A,,Clear,270,2013-01-14 23:52:00
7:52 PM,34.0,19.9,56,30.29,10.0,WSW,12.7,-,N/A,,Clear,250,2013-01-15 00:52:00
8:52 PM,34.0,19.9,56,30.28,10.0,West,11.5,18.4,N/A,,Clear,260,2013-01-15 01:52:00
9:52 PM,33.1,19.9,59,30.27,10.0,West,9.2,-,N/A,,Clear,260,2013-01-15 02:52:00
10:52 PM,33.1,21.0,61,30.29,10.0,West,5.8,-,N/A,,Clear,260,2013-01-15 03:52:00
11:52 PM,33.1,21.0,61,30.31,10.0,West,9.2,-,N/A,,Clear,260,2013-01-15 04:52:00